Weather Roundup
Issued by NWS Springfield, MO

Home | Current Version | Previous Version | Text Only | Print | Product List | Glossary On
Versions: 1 2 3 4 5 6 7 8 9 10 11 12 13 14 15 16 17 18 19 20 21 22 23 24 25 26 27 28 29 30 31 32 33 34 35 36 37 38 39 40 41 42 43 44 45 46 47 48 49 50
000
NZUS99 KSGF 111907
HRRSGF

HOURLY WEATHER
NATIONAL WEATHER SERVICE SPRINGFIELD MO
100 PM CST MON DEC 11 2017

......SGF CWA......

CITY           SKY/WX    TMP DP  RH WIND       PRES   REMARKS
SPRINGFIELD    MOSUNNY   58  19  22 W20G32    29.95F
JOPLIN         MOSUNNY   62  21  20 NW15G21   30.01F
WEST PLAINS    SUNNY     66  14  13 W20G29    29.89F
ROLLA          CLOUDY    55  20  25 W21G33    29.88R
OSAGE BEACH    CLOUDY    53  21  28 W10G24    29.92S
BRANSON        MOSUNNY   66  14  13 NW12G21   29.96F

......SURROUNDING SGF CWA......

CITY           SKY/WX    TMP DP  RH WIND       PRES   REMARKS
CHANUTE        SUNNY     64  15  15 NW17G28   30.02F
PARSONS        SUNNY     67  16  14 NW16G26   30.03F
COFFEYVILLE    SUNNY     67  19  16 NW13      30.03F
EMPORIA        MOSUNNY   57  16  20 NW22G35   30.04F
GROVE OK       SUNNY     63  27  25 W8G16     30.05F
ROGERS AR      SUNNY     66  20  17 W14       30.01F
HARRISON AR    SUNNY     69  11  10 W14G30    29.95F
NEAR YELLVILLE SUNNY     72  12  10 W22G31    29.93F

......KANSAS AND MISSOURI......

CITY           SKY/WX    TMP DP  RH WIND       PRES   REMARKS
KANSAS CTY INT MOSUNNY   56  25  30 NW24G31   29.96R
DOWNTOWN KC    SUNNY     57  25  29 NW21G37   29.95R
COLUMBIA       MOSUNNY   53  24  32 W21G32    29.85F
SEDALIA        SUNNY     56  25  30 NW23G31   29.92F
ST JOSEPH      MOSUNNY   55  30  38 NW31G40   29.97R
ST LOUIS       CLOUDY    56  21  25 W23G30    29.77F
SPIRIT OF STL  MOSUNNY   56  21  25 W25G36    29.79R
KIRKSVILLE     CLOUDY    50  30  46 NW26G45   29.81R
WICHITA        MOSUNNY   67  14  13 NW31G39   30.09F
TOPEKA         PTSUNNY   57  22  25 NW23G31   30.02R
OLATHE         MOSUNNY   53  21  28 NW14G30   29.97F

......TENNESSEE......

CITY           SKY/WX    TMP DP  RH WIND       PRES   REMARKS
MEMPHIS        SUNNY     63  29  27 SW15G28   30.02F
NASHVILLE      SUNNY     59  29  31 S12       29.99F

......ARKANSAS.......

CITY           SKY/WX    TMP DP  RH WIND       PRES   REMARKS
FAYETTEVILLE   SUNNY     68  16  13 W16G23    30.02F
FT SMITH       SUNNY     69  20  15 W13       30.04F
LITTLE ROCK    MOSUNNY   70  24  17 SW15      30.03F

......OKLAHOMA.......

CITY           SKY/WX    TMP DP  RH WIND       PRES   REMARKS
TULSA          MOSUNNY   65  18  16 W12       30.07F
PONCA CITY     SUNNY     64  17  16 N12       30.10F
MCALESTER      MOSUNNY   75  21  13 NW7       30.07F
OKLAHOMA CITY  SUNNY     65  14  14 NW22      30.13S

......IOWA............

CITY           SKY/WX    TMP DP  RH WIND       PRES   REMARKS
DES MOINES     LGT RAIN  44  32  62 NW24G37   29.83R
QUAD CITIES    CLOUDY    44  27  51 W14       29.65S

......ILLINOIS........

CITY           SKY/WX    TMP DP  RH WIND       PRES   REMARKS
QUINCY         SUNNY     50  24  36 W25G37    29.73S
CHICAGO        CLOUDY    37  25  61 S8        29.70F WCI  31



USA.gov is the U.S. government's official web portal to all federal, state and local government web resources and services.